Weather Roundup
Issued by NWS Springfield, MO

Home | Current Version | Previous Version | Text Only | Print | Product List | Glossary On
Versions: 1 2 3 4 5 6 7 8 9 10 11 12 13 14 15 16 17 18 19 20 21 22 23 24 25 26 27 28 29 30 31 32 33 34 35 36 37 38 39 40 41 42 43 44 45 46 47 48 49 50
000
NZUS99 KSGF 042307
HRRSGF

HOURLY WEATHER
NATIONAL WEATHER SERVICE SPRINGFIELD MO
500 PM CST SUN DEC 04 2016

......SGF CWA......

CITY           SKY/WX    TMP DP  RH WIND       PRES   REMARKS
SPRINGFIELD    CLOUDY    43  38  82 NW3       30.00S
JOPLIN         PTCLDY    43  37  79 VRB5      30.04S
WEST PLAINS    CLOUDY    44  39  82 NW8       29.99R
ROLLA          CLOUDY    41  39  93 W7        29.96S
OSAGE BEACH    MOCLDY    42  35  76 W7        30.00S
BRANSON        CLOUDY    45  39  81 NW10      30.02R

......SURROUNDING SGF CWA......

CITY           SKY/WX    TMP DP  RH WIND       PRES   REMARKS
CHANUTE        CLEAR     45  36  70 W3        30.02S
PARSONS        CLEAR     48  39  71 CALM      30.03F
COFFEYVILLE    CLEAR     49  39  68 SE3       30.03F
EMPORIA        CLEAR     44  35  70 W3        30.00S
GROVE OK       CLOUDY    46  39  76 CALM      30.05S
ROGERS AR      CLOUDY    43  38  82 NW5       30.03S
SILOAM SPRINGS CLOUDY    45  37  76 NW5       30.03S
HARRISON AR    CLOUDY    43  39  86 VRB5      30.00S
NEAR YELLVILLE CLOUDY    45  37  76 NW6       29.99R

......KANSAS AND MISSOURI......

CITY           SKY/WX    TMP DP  RH WIND       PRES   REMARKS
KANSAS CTY INT PTCLDY    39  33  79 W9        29.99R WCI  33
DOWNTOWN KC    PTCLDY    42  36  79 W10       30.01R
COLUMBIA       CLOUDY    39  37  92 W7        29.97S WCI  34
SEDALIA        CLEAR     42  35  76 W6        29.99S
ST JOSEPH      PTCLDY    38  34  85 SW8       29.98R WCI  32
ST LOUIS       CLOUDY    41  35  79 W10       29.96S
SPIRIT OF STL  CLOUDY    40  37  89 W7        29.97S
KIRKSVILLE     CLOUDY    35  33  92 W10       29.95R WCI  27
WICHITA        CLEAR     47  35  63 S5        30.01R
TOPEKA         CLEAR     38  34  85 VRB5      30.01R WCI  34
OLATHE         PTCLDY    41  35  79 W5        30.00R

......TENNESSEE......

CITY           SKY/WX    TMP DP  RH WIND       PRES   REMARKS
MEMPHIS        CLOUDY    46  44  93 NW6       30.00R
NASHVILLE      DRIZZLE   48  46  93 CALM      29.97R FOG

......ARKANSAS.......

CITY           SKY/WX    TMP DP  RH WIND       PRES   REMARKS
FAYETTEVILLE   CLOUDY    42  39  89 NW5       30.02S
FT SMITH       CLOUDY    49  43  80 W5        30.04R
LITTLE ROCK    CLOUDY    47  45  93 CALM      30.03R

......OKLAHOMA.......

CITY           SKY/WX    TMP DP  RH WIND       PRES   REMARKS
TULSA          PTCLDY    50  38  63 NW5       30.02S
PONCA CITY     CLEAR     48  38  68 SW5       30.04S
MCALESTER      CLOUDY    49  41  74 NW6       30.05F
OKLAHOMA CITY  PTCLDY    51  37  58 N7        30.03F

......IOWA............

CITY           SKY/WX    TMP DP  RH WIND       PRES   REMARKS
DES MOINES     PTCLDY    36  33  89 W8        29.90F FOG     WCI  30
QUAD CITIES    CLOUDY    34  31  88 CALM      29.91F FOG

......ILLINOIS........

CITY           SKY/WX    TMP DP  RH WIND       PRES   REMARKS
QUINCY         CLOUDY    34  33  96 W7        29.94S WCI  28
CHICAGO        SNOW      32  32 100 CALM      29.90F VSB 1/2




USA.gov is the U.S. government's official web portal to all federal, state and local government web resources and services.